MDT,Max TemperatureF,Mean TemperatureF,Min TemperatureF,Max Dew PointF,MeanDew PointF,Min DewpointF,Max Humidity, Mean Humidity, Min Humidity, Max Sea Level PressureIn, Mean Sea Level PressureIn, Min Sea Level PressureIn, Max VisibilityMiles, Mean VisibilityMiles, Min VisibilityMiles, Max Wind SpeedMPH, Mean Wind SpeedMPH, Max Gust SpeedMPH,PrecipitationIn, CloudCover, Events, WindDirDegrees
2013-10-1,75,59,43,41,37,32,63,43,23,30.13,29.91,29.80,10,10,10,25,6,33,0.00,1,,170
2013-10-2,73,58,42,43,38,32,83,53,23,29.94,29.86,29.79,10,10,10,15,4,22,0.00,2,,93
2013-10-3,65,52,39,47,42,36,93,69,44,29.84,29.76,29.66,10,8,2,15,4,20,0.00,4,Rain,41
2013-10-4,47,37,26,46,32,22,100,78,56,30.30,30.03,29.69,10,6,0,25,11,32,0.00,7,Fog-Rain-Snow,10
2013-10-5,56,40,24,26,19,11,88,52,16,30.28,30.23,30.16,10,10,10,12,7,12,0.00,3,,262
2013-10-6,65,48,30,35,26,14,76,50,23,30.28,30.23,30.17,10,10,10,12,4,14,0.00,1,,148
2013-10-7,77,57,36,34,27,17,62,36,10,30.16,30.02,29.83,10,10,10,16,6,21,0.00,2,,151
2013-10-8,76,62,48,35,29,23,50,32,14,29.80,29.71,29.57,10,10,10,21,8,25,0.00,4,,207
2013-10-9,64,53,41,42,37,32,86,63,39,29.93,29.85,29.73,10,10,10,13,4,17,0.00,4,,6
2013-10-10,67,54,40,45,40,30,93,65,37,29.91,29.67,29.51,10,9,6,36,7,47,T,6,Rain,221
2013-10-11,61,50,38,38,30,23,86,58,29,30.01,29.75,29.44,10,10,10,21,11,28,T,4,,229
2013-10-12,58,47,36,38,35,32,92,68,43,30.21,30.11,30.01,10,10,6,23,6,31,0.00,4,,203
2013-10-13,64,49,34,46,37,30,82,61,39,30.16,30.01,29.82,10,10,10,25,9,32,T,4,Rain,183
2013-10-14,55,46,37,43,37,29,89,66,43,30.20,29.91,29.74,10,9,2,22,11,28,0.09,5,Rain-Thunderstorm,21
2013-10-15,38,35,31,28,25,22,75,67,59,30.38,30.28,30.19,10,8,2,13,5,18,T,8,Snow,42
2013-10-16,52,40,27,29,24,21,85,58,30,30.26,30.12,30.02,10,10,9,10,5,14,0.00,2,,158
2013-10-17,50,41,31,30,27,21,76,59,42,30.15,30.07,30.02,10,10,10,14,6,18,0.00,5,,105
2013-10-18,41,35,29,32,28,24,100,80,59,30.25,30.15,30.02,10,6,1,23,7,28,0.10,6,Snow,24
2013-10-19,62,46,29,24,20,18,69,44,19,30.17,30.02,29.90,10,10,10,21,8,26,0.00,3,,239
2013-10-20,49,40,30,36,31,21,96,67,37,30.18,30.04,29.83,10,8,2,18,6,23,0.09,7,Rain-Snow,51
2013-10-21,55,41,26,32,26,21,92,60,28,30.27,30.19,30.12,10,10,10,12,4,16,0.00,1,,198
2013-10-22,61,49,36,31,27,23,70,48,26,30.23,30.15,30.09,10,10,10,14,5,17,0.00,2,,162
2013-10-23,63,49,34,33,30,26,70,49,27,30.19,30.14,30.10,10,10,10,14,6,18,0.00,0,,119
2013-10-24,56,44,32,38,33,28,85,68,51,30.29,30.23,30.17,10,10,7,10,3,25,0.00,2,,339
2013-10-25,66,49,32,34,30,26,89,56,22,30.24,30.16,30.06,10,10,8,10,4,14,0.00,3,,165
2013-10-26,60,48,36,35,31,29,82,56,29,30.38,30.26,30.12,10,10,10,13,4,15,0.00,1,,224
2013-10-27,67,52,37,30,23,16,70,43,15,30.12,29.93,29.80,10,10,10,15,6,16,0.00,1,,184
2013-10-28,47,39,31,34,30,23,100,69,38,30.11,30.00,29.79,10,5,2,21,6,24,T,7,,44
2013-10-29,43,38,32,33,31,30,92,77,62,30.06,29.98,29.89,9,5,0,13,4,16,0.01,8,Fog-Rain,13
2013-10-30,53,42,30,34,31,19,100,65,30,29.93,29.86,29.78,10,5,0,17,5,23,0.10,5,Fog-Rain,153
2013-10-31,52,40,28,27,21,16,85,55,24,29.92,29.87,29.81,10,10,10,26,8,33,0.00,1,,265